QPF
0.01 0.01 0.02 0.02 0.02 0.02 0.02 0.02 0.02 0.01 0.00 0.00 0.01 0.02 0.03 0.04 0.05 0.06 0.04 0.04 0.04 0.04 0.04 0.03 0.02 0.02 0.03 0.03 0.04 0.06 0.06 0.06 0.07 0.08 0.10 0.11 0.11 0.10 0.09 0.06 0.05 0.04 0.03
0.01 0.01 0.01 0.01 0.01 0.02 0.03 0.02 0.01 0.01 0.01 0.01 0.02 0.02 0.03 0.03 0.03 0.04 0.03 0.03 0.03 0.03 0.04 0.03 0.02 0.03 0.03 0.03 0.04 0.04 0.04 0.04 0.04 0.04 0.04 0.05 0.06 0.06 0.04 0.03 0.03 0.03 0.03
0.01 0.01 0.01 0.01 0.01 0.02 0.03 0.02 0.01 0.01 0.01 0.02 0.02 0.03 0.03 0.03 0.02 0.02 0.02 0.02 0.01 0.02 0.03 0.03 0.04 0.03 0.03 0.03 0.03 0.03 0.05 0.06 0.04 0.03 0.02 0.02 0.03 0.02 0.02 0.02 0.03 0.03 0.04
0.00 0.00 0.00 0.00 0.01 0.01 0.01 0.01 0.01 0.01 0.01 0.02 0.02 0.02 0.02 0.02 0.01 0.01 0.01 0.01 0.01 0.01 0.02 0.03 0.06 0.06 0.04 0.03 0.02 0.02 0.05 0.07 0.05 0.03 0.02 0.02 0.02 0.02 0.02 0.02 0.03 0.05 0.06
0.00 0.00 0.00 0.00 0.01 0.01 0.01 0.01 0.01 0.02 0.01 0.00 0.00 0.00 0.01 0.01 0.02 0.01 0.01 0.01 0.01 0.01 0.02 0.03 0.05 0.06 0.06 0.05 0.03 0.02 0.03 0.03 0.03 0.03 0.02 0.02 0.02 0.02 0.03 0.03 0.04 0.05 0.06
0.01 0.01 0.00 0.00 0.00 0.01 0.01 0.02 0.01 0.02 0.02 0.01 0.01 0.00 0.01 0.01 0.01 0.01 0.01 0.01 0.01 0.02 0.03 0.04 0.05 0.05 0.04 0.04 0.03 0.02 0.02 0.02 0.02 0.02 0.02 0.02 0.02 0.03 0.03 0.05 0.04 0.04 0.04
0.02 0.01 0.00 0.00 0.01 0.02 0.02 0.02 0.01 0.01 0.01 0.01 0.01 0.01 0.01 0.00 0.01 0.01 0.01 0.01 0.02 0.03 0.05 0.06 0.05 0.04 0.02 0.02 0.02 0.02 0.02 0.02 0.02 0.02 0.01 0.01 0.02 0.02 0.03 0.05 0.06 0.05 0.05
0.02 0.01 0.01 0.01 0.02 0.02 0.01 0.01 0.01 0.00 0.00 0.01 0.02 0.03 0.01 0.00 0.00 0.01 0.02 0.02 0.03 0.03 0.03 0.03 0.02 0.01 0.01 0.01 0.01 0.01 0.01 0.02 0.01 0.01 0.01 0.01 0.01 0.02 0.03 0.05 0.06 0.07 0.06
0.02 0.02 0.02 0.02 0.01 0.01 0.01 0.00 0.00 0.00 0.01 0.01 0.02 0.01 0.00 0.01 0.01 0.01 0.01 0.01 0.00 0.01 0.00 0.00 0.00 0.00 0.00 0.01 0.01 0.01 0.00 0.01 0.01 0.00 0.00 0.00 0.01 0.01 0.02 0.03 0.03 0.04 0.03
0.02 0.02 0.02 0.02 0.02 0.01 0.01 0.00 0.00 0.01 0.01 0.01 0.00 0.00 0.00 0.00 0.00 0.00 0.00 0.00 0.00 0.00 0.00 0.00 0.00 0.00 0.00 0.00 0.01 0.00 0.00 0.00 0.01 0.00 0.00 0.00 0.01 0.01 0.02 0.02 0.02 0.02 0.02
0.02 0.02 0.02 0.02 0.02 0.01 0.01 0.01 0.01 0.01 0.01 0.00 0.01 0.01 0.01 0.01 0.00 0.00 0.00 0.00 0.00 0.00 0.00 0.00 0.00 0.00 0.00 0.00 0.01 0.01 0.01 0.01 0.01 0.01 0.01 0.01 0.01 0.02 0.03 0.04 0.03 0.02 0.02
0.02 0.02 0.03 0.02 0.01 0.01 0.01 0.01 0.01 0.01 0.01 0.01 0.01 0.01 0.01 0.01 0.00 0.00 0.00 0.00 0.00 0.00 0.00 0.00 0.00 0.00 0.01 0.01 0.02 0.02 0.02 0.01 0.01 0.02 0.03 0.03 0.03 0.03 0.03 0.05 0.04 0.02 0.01
0.02 0.02 0.02 0.02 0.02 0.01 0.01 0.01 0.01 0.01 0.01 0.01 0.01 0.02 0.02 0.01 0.01 0.01 0.01 0.01 0.01 0.00 0.00 0.00 0.00 0.01 0.01 0.02 0.03 0.03 0.03 0.03 0.03 0.03 0.03 0.02 0.02 0.01 0.01 0.02 0.03 0.02 0.02
0.01 0.01 0.01 0.01 0.01 0.01 0.01 0.01 0.01 0.01 0.01 0.02 0.02 0.02 0.01 0.01 0.01 0.01 0.01 0.01 0.01 0.01 0.01 0.01 0.01 0.01 0.01 0.02 0.02 0.02 0.03 0.03 0.03 0.03 0.02 0.02 0.01 0.01 0.01 0.01 0.02 0.02 0.02
0.01 0.02 0.01 0.01 0.01 0.02 0.03 0.03 0.03 0.02 0.02 0.03 0.03 0.02 0.02 0.02 0.02 0.01 0.01 0.01 0.01 0.01 0.02 0.02 0.02 0.02 0.02 0.02 0.02 0.02 0.02 0.02 0.02 0.01 0.01 0.01 0.01 0.01 0.01 0.01 0.01 0.02 0.02
0.01 0.01 0.01 0.01 0.02 0.02 0.02 0.03 0.03 0.03 0.03 0.03 0.02 0.02 0.02 0.02 0.02 0.01 0.02 0.02 0.02 0.02 0.02 0.01 0.01 0.02 0.02 0.03 0.03 0.02 0.02 0.02 0.01 0.01 0.00 0.00 0.00 0.00 0.00 0.01 0.01 0.01 0.01
0.01 0.01 0.02 0.02 0.03 0.03 0.03 0.03 0.03 0.03 0.03 0.03 0.03 0.03 0.03 0.03 0.02 0.02 0.02 0.02 0.02 0.03 0.02 0.02 0.02 0.01 0.01 0.02 0.02 0.02 0.02 0.02 0.01 0.00 0.00 0.00 0.00 0.00 0.01 0.01 0.01 0.01 0.01
0.02 0.03 0.04 0.04 0.04 0.04 0.03 0.03 0.02 0.03 0.03 0.03 0.04 0.05 0.05 0.04 0.02 0.02 0.01 0.01 0.01 0.01 0.01 0.01 0.02 0.02 0.02 0.02 0.02 0.02 0.02 0.01 0.01 0.01 0.00 0.00 0.00 0.01 0.01 0.01 0.01 0.01 0.02
0.03 0.03 0.04 0.04 0.03 0.03 0.03 0.02 0.02 0.02 0.02 0.02 0.03 0.03 0.03 0.02 0.02 0.01 0.01 0.01 0.01 0.01 0.01 0.01 0.01 0.01 0.01 0.01 0.01 0.01 0.01 0.01 0.01 0.01 0.00 0.00 0.00 0.01 0.01 0.02 0.03 0.02 0.01
0.06 0.04 0.03 0.03 0.02 0.03 0.03 0.03 0.03 0.03 0.02 0.02 0.02 0.01 0.01 0.01 0.01 0.01 0.00 0.00 0.01 0.01 0.01 0.01 0.01 0.01 0.01 0.01 0.01 0.01 0.01 0.01 0.01 0.00 0.00 0.00 0.00 0.00 0.01 0.01 0.02 0.03 0.04
0.07 0.04 0.02 0.01 0.01 0.02 0.03 0.03 0.03 0.02 0.02 0.02 0.02 0.02 0.02 0.01 0.01 0.00 0.00 0.00 0.01 0.01 0.01 0.01 0.02 0.01 0.01 0.01 0.01 0.01 0.00 0.00 0.00 0.00 0.00 0.00 0.00 0.01 0.01 0.01 0.01 0.02 0.03
0.03 0.03 0.02 0.02 0.02 0.03 0.03 0.04 0.04 0.03 0.03 0.03 0.03 0.03 0.02 0.01 0.01 0.01 0.01 0.01 0.01 0.01 0.02 0.02 0.02 0.02 0.01 0.01 0.01 0.01 0.00 0.00 0.00 0.00 0.00 0.00 0.01 0.01 0.02 0.02 0.02 0.02 0.02
0.03 0.02 0.02 0.02 0.02 0.04 0.05 0.05 0.04 0.04 0.03 0.04 0.04 0.03 0.03 0.02 0.02 0.02 0.03 0.03 0.03 0.03 0.03 0.02 0.01 0.01 0.01 0.01 0.01 0.00 0.00 0.00 0.00 0.00 0.00 0.01 0.01 0.01 0.01 0.01 0.02 0.02 0.03
0.02 0.02 0.02 0.02 0.02 0.02 0.03 0.04 0.05 0.04 0.03 0.04 0.04 0.03 0.03 0.03 0.03 0.04 0.04 0.04 0.04 0.03 0.02 0.02 0.02 0.02 0.02 0.01 0.01 0.01 0.00 0.01 0.01 0.01 0.01 0.01 0.02 0.02 0.01 0.01 0.01 0.02 0.03
0.02 0.02 0.02 0.02 0.02 0.02 0.02 0.02 0.03 0.04 0.05 0.04 0.04 0.03 0.03 0.03 0.03 0.04 0.04 0.03 0.03 0.02 0.02 0.03 0.03 0.02 0.02 0.01 0.01 0.01 0.02 0.02 0.02 0.03 0.03 0.03 0.04 0.04 0.04 0.03 0.03 0.03 0.03
0.02 0.02 0.03 0.03 0.04 0.03 0.03 0.02 0.02 0.03 0.03 0.03 0.03 0.03 0.03 0.03 0.02 0.02 0.02 0.03 0.02 0.03 0.03 0.03 0.02 0.02 0.02 0.01 0.02 0.03 0.04 0.04 0.04 0.04 0.03 0.03 0.03 0.03 0.03 0.03 0.04 0.04 0.04
MSLP
1016.76 1016.93 1017.10 1017.24 1017.31 1017.30 1017.22 1017.09 1016.96 1016.86 1016.84 1016.89 1017.01 1017.19 1017.39 1017.58 1017.73 1017.82 1017.84 1017.80 1017.71 1017.57 1017.40 1017.20 1016.98 1016.75 1016.54 1016.36 1016.25 1016.24 1016.35 1016.60 1016.98 1017.48 1018.04 1018.62 1019.14 1019.57 1019.87 1020.02 1020.02 1019.91 1019.72
1016.47 1016.63 1016.81 1016.96 1017.06 1017.09 1017.06 1016.99 1016.92 1016.87 1016.87 1016.94 1017.07 1017.24 1017.44 1017.63 1017.78 1017.90 1017.96 1017.96 1017.90 1017.80 1017.64 1017.45 1017.22 1016.97 1016.71 1016.49 1016.33 1016.28 1016.35 1016.58 1016.95 1017.45 1018.03 1018.64 1019.22 1019.71 1020.07 1020.28 1020.36 1020.31 1020.18
1016.27 1016.43 1016.62 1016.79 1016.92 1016.98 1017.00 1016.98 1016.95 1016.93 1016.96 1017.03 1017.15 1017.31 1017.48 1017.65 1017.81 1017.93 1018.01 1018.05 1018.03 1017.97 1017.86 1017.70 1017.49 1017.24 1016.98 1016.73 1016.53 1016.43 1016.45 1016.62 1016.95 1017.41 1017.97 1018.57 1019.16 1019.68 1020.09 1020.38 1020.53 1020.57 1020.52
1016.19 1016.37 1016.56 1016.74 1016.88 1016.96 1017.00 1017.01 1017.00 1017.01 1017.04 1017.11 1017.21 1017.33 1017.47 1017.62 1017.75 1017.86 1017.95 1018.02 1018.05 1018.05 1017.99 1017.89 1017.73 1017.52 1017.27 1017.02 1016.79 1016.64 1016.61 1016.70 1016.95 1017.33 1017.83 1018.39 1018.96 1019.49 1019.94 1020.28 1020.52 1020.66 1020.72
1016.27 1016.45 1016.64 1016.80 1016.93 1017.00 1017.04 1017.05 1017.04 1017.05 1017.07 1017.11 1017.18 1017.27 1017.37 1017.47 1017.57 1017.66 1017.75 1017.83 1017.91 1017.95 1017.97 1017.94 1017.84 1017.69 1017.49 1017.26 1017.03 1016.85 1016.75 1016.77 1016.92 1017.21 1017.61 1018.10 1018.62 1019.14 1019.61 1020.02 1020.34 1020.59 1020.77
1016.54 1016.70 1016.86 1016.98 1017.05 1017.08 1017.08 1017.05 1017.02 1017.00 1017.00 1017.02 1017.05 1017.10 1017.14 1017.19 1017.25 1017.31 1017.39 1017.48 1017.57 1017.67 1017.75 1017.79 1017.78 1017.70 1017.56 1017.37 1017.16 1016.97 1016.83 1016.77 1016.83 1017.02 1017.32 1017.72 1018.18 1018.67 1019.15 1019.60 1020.00 1020.35 1020.64
1016.98 1017.12 1017.21 1017.25 1017.24 1017.19 1017.11 1017.03 1016.95 1016.89 1016.85 1016.84 1016.83 1016.83 1016.83 1016.83 1016.83 1016.85 1016.90 1016.97 1017.08 1017.20 1017.33 1017.43 1017.50 1017.50 1017.43 1017.30 1017.13 1016.94 1016.78 1016.68 1016.67 1016.76 1016.97 1017.28 1017.68 1018.13 1018.60 1019.08 1019.54 1019.97 1020.36
1017.59 1017.67 1017.67 1017.61 1017.49 1017.34 1017.17 1017.00 1016.86 1016.75 1016.67 1016.62 1016.57 1016.53 1016.49 1016.43 1016.39 1016.36 1016.35 1016.39 1016.48 1016.60 1016.75 1016.90 1017.02 1017.09 1017.10 1017.03 1016.92 1016.76 1016.61 1016.49 1016.44 1016.47 1016.61 1016.85 1017.18 1017.58 1018.04 1018.52 1019.01 1019.49 1019.94
1018.32 1018.31 1018.22 1018.04 1017.81 1017.54 1017.27 1017.02 1016.81 1016.65 1016.54 1016.45 1016.38 1016.31 1016.22 1016.12 1016.01 1015.92 1015.86 1015.84 1015.88 1015.97 1016.10 1016.25 1016.40 1016.52 1016.59 1016.60 1016.54 1016.45 1016.33 1016.23 1016.16 1016.17 1016.26 1016.45 1016.73 1017.09 1017.51 1017.97 1018.46 1018.95 1019.44
1019.09 1019.00 1018.81 1018.52 1018.18 1017.81 1017.45 1017.14 1016.88 1016.68 1016.54 1016.43 1016.34 1016.24 1016.11 1015.96 1015.80 1015.64 1015.49 1015.39 1015.36 1015.38 1015.47 1015.60 1015.74 1015.88 1015.99 1016.05 1016.07 1016.03 1015.97 1015.91 1015.87 1015.88 1015.96 1016.12 1016.36 1016.67 1017.05 1017.47 1017.93 1018.41 1018.89
1019.83 1019.66 1019.38 1019.02 1018.59 1018.15 1017.74 1017.38 1017.09 1016.88 1016.73 1016.61 1016.50 1016.37 1016.22 1016.02 1015.79 1015.55 1015.32 1015.12 1014.99 1014.92 1014.93 1015.00 1015.11 1015.23 1015.36 1015.46 1015.53 1015.56 1015.56 1015.56 1015.57 1015.61 1015.69 1015.84 1016.05 1016.33 1016.66 1017.03 1017.44 1017.87 1018.31
1020.47 1020.25 1019.91 1019.50 1019.03 1018.56 1018.13 1017.76 1017.47 1017.26 1017.10 1016.98 1016.86 1016.71 1016.52 1016.27 1015.98 1015.66 1015.33 1015.04 1014.79 1014.61 1014.52 1014.50 1014.54 1014.63 1014.74 1014.85 1014.95 1015.03 1015.10 1015.16 1015.23 1015.31 1015.42 1015.57 1015.77 1016.01 1016.30 1016.62 1016.96 1017.33 1017.71
1020.97 1020.71 1020.35 1019.93 1019.47 1019.01 1018.60 1018.25 1017.98 1017.77 1017.62 1017.49 1017.36 1017.19 1016.95 1016.66 1016.30 1015.90 1015.48 1015.08 1014.72 1014.43 1014.22 1014.09 1014.05 1014.07 1014.13 1014.23 1014.34 1014.46 1014.57 1014.68 1014.80 1014.92 1015.07 1015.24 1015.43 1015.66 1015.90 1016.17 1016.46 1016.77 1017.08
1021.31 1021.04 1020.69 1020.29 1019.87 1019.46 1019.10 1018.79 1018.54 1018.35 1018.20 1018.06 1017.90 1017.69 1017.42 1017.07 1016.65 1016.17 1015.67 1015.17 1014.71 1014.31 1013.98 1013.75 1013.60 1013.54 1013.54 1013.59 1013.68 1013.79 1013.93 1014.07 1014.22 1014.39 1014.56 1014.75 1014.96 1015.17 1015.40 1015.63 1015.88 1016.13 1016.40
1021.53 1021.26 1020.94 1020.59 1020.23 1019.89 1019.58 1019.31 1019.10 1018.92 1018.76 1018.59 1018.39 1018.13 1017.80 1017.39 1016.91 1016.37 1015.80 1015.23 1014.68 1014.18 1013.76 1013.42 1013.17 1013.01 1012.92 1012.91 1012.95 1013.03 1013.15 1013.29 1013.46 1013.65 1013.84 1014.05 1014.27 1014.48 1014.70 1014.92 1015.15 1015.38 1015.62
1021.67 1021.42 1021.14 1020.85 1020.56 1020.28 1020.02 1019.79 1019.58 1019.39 1019.20 1018.98 1018.72 1018.40 1018.00 1017.54 1017.00 1016.42 1015.80 1015.18 1014.57 1014.01 1013.51 1013.08 1012.74 1012.47 1012.29 1012.18 1012.15 1012.16 1012.23 1012.35 1012.49 1012.67 1012.88 1013.09 1013.32 1013.55 1013.78 1014.01 1014.23 1014.46 1014.70
1021.82 1021.58 1021.34 1021.10 1020.87 1020.64 1020.41 1020.19 1019.98 1019.75 1019.49 1019.21 1018.87 1018.48 1018.02 1017.50 1016.93 1016.31 1015.67 1015.02 1014.39 1013.78 1013.23 1012.73 1012.31 1011.95 1011.66 1011.45 1011.31 1011.24 1011.23 1011.27 1011.37 1011.52 1011.70 1011.91 1012.13 1012.38 1012.62 1012.87 1013.12 1013.37 1013.62
1022.04 1021.81 1021.60 1021.40 1021.20 1021.00 1020.78 1020.55 1020.29 1020.00 1019.67 1019.30 1018.88 1018.41 1017.89 1017.32 1016.72 1016.09 1015.45 1014.80 1014.17 1013.55 1012.97 1012.43 1011.93 1011.48 1011.09 1010.77 1010.51 1010.32 1010.20 1010.15 1010.17 1010.25 1010.38 1010.56 1010.78 1011.01 1011.27 1011.54 1011.81 1012.09 1012.38
1022.36 1022.15 1021.96 1021.78 1021.60 1021.39 1021.15 1020.88 1020.56 1020.19 1019.78 1019.32 1018.81 1018.27 1017.70 1017.10 1016.49 1015.86 1015.24 1014.62 1014.00 1013.39 1012.80 1012.22 1011.67 1011.15 1010.66 1010.22 1009.84 1009.52 1009.27 1009.10 1009.01 1008.99 1009.05 1009.16 1009.34 1009.55 1009.79 1010.07 1010.36 1010.66 1010.98
1022.82 1022.62 1022.44 1022.26 1022.06 1021.83 1021.56 1021.23 1020.84 1020.40 1019.89 1019.35 1018.77 1018.16 1017.55 1016.93 1016.32 1015.72 1015.13 1014.54 1013.96 1013.38 1012.79 1012.19 1011.59 1011.00 1010.42 1009.87 1009.36 1008.91 1008.52 1008.21 1007.99 1007.85 1007.80 1007.83 1007.93 1008.09 1008.30 1008.55 1008.83 1009.15 1009.49
1023.37 1023.18 1023.00 1022.81 1022.60 1022.34 1022.02 1021.63 1021.17 1020.65 1020.07 1019.46 1018.82 1018.18 1017.54 1016.93 1016.33 1015.76 1015.21 1014.66 1014.11 1013.56 1012.97 1012.37 1011.73 1011.08 1010.42 1009.77 1009.14 1008.55 1008.03 1007.58 1007.21 1006.94 1006.76 1006.68 1006.67 1006.74 1006.88 1007.08 1007.33 1007.63 1007.96
1023.96 1023.78 1023.60 1023.41 1023.17 1022.88 1022.51 1022.08 1021.56 1020.99 1020.36 1019.70 1019.03 1018.37 1017.73 1017.12 1016.55 1016.01 1015.50 1014.99 1014.48 1013.94 1013.37 1012.75 1012.09 1011.38 1010.65 1009.91 1009.18 1008.47 1007.82 1007.24 1006.73 1006.32 1006.01 1005.79 1005.66 1005.62 1005.66 1005.77 1005.95 1006.20 1006.51
1024.52 1024.35 1024.18 1023.98 1023.73 1023.41 1023.02 1022.55 1022.01 1021.40 1020.75 1020.07 1019.40 1018.74 1018.11 1017.53 1016.98 1016.48 1015.99 1015.51 1015.02 1014.50 1013.93 1013.30 1012.61 1011.87 1011.09 1010.28 1009.46 1008.66 1007.91 1007.21 1006.58 1006.04 1005.59 1005.24 1004.98 1004.81 1004.73 1004.73 1004.82 1004.99 1005.24
1024.95 1024.81 1024.66 1024.46 1024.21 1023.89 1023.49 1023.02 1022.47 1021.86 1021.21 1020.55 1019.89 1019.25 1018.65 1018.09 1017.57 1017.09 1016.63 1016.16 1015.68 1015.16 1014.59 1013.95 1013.24 1012.47 1011.66 1010.80 1009.93 1009.08 1008.24 1007.46 1006.74 1006.09 1005.53 1005.06 1004.67 1004.37 1004.17 1004.05 1004.03 1004.11 1004.28
1025.23 1025.12 1024.98 1024.81 1024.58 1024.27 1023.89 1023.43 1022.90 1022.32 1021.70 1021.07 1020.44 1019.84 1019.27 1018.74 1018.24 1017.78 1017.32 1016.86 1016.38 1015.85 1015.27 1014.62 1013.91 1013.13 1012.30 1011.42 1010.54 1009.65 1008.78 1007.95 1007.17 1006.45 1005.80 1005.23 1004.74 1004.33 1004.01 1003.78 1003.66 1003.63 1003.72
1025.30 1025.23 1025.14 1024.99 1024.79 1024.52 1024.17 1023.75 1023.27 1022.73 1022.17 1021.58 1021.00 1020.44 1019.91 1019.40 1018.93 1018.47 1018.01 1017.55 1017.06 1016.52 1015.93 1015.28 1014.56 1013.79 1012.96 1012.10 1011.22 1010.34 1009.47 1008.62 1007.82 1007.06 1006.36 1005.73 1005.16 1004.67 1004.26 1003.95 1003.73 1003.61 1003.62
Thickness
5776 5772 5767 5764 5761 5758 5754 5752 5749 5747 5745 5743 5742 5740 5738 5737 5735 5733 5731 5729 5727 5725 5723 5721 5719 5717 5715 5713 5712 5709 5706 5702 5694 5687 5684 5681 5679 5677 5675 5673 5671 5669 5667
5776 5771 5767 5763 5759 5756 5753 5750 5748 5745 5743 5741 5739 5737 5735 5732 5730 5728 5726 5724 5722 5719 5718 5716 5714 5713 5710 5708 5706 5704 5700 5697 5692 5684 5678 5675 5672 5670 5668 5666 5663 5661 5658
5776 5770 5765 5761 5758 5754 5751 5748 5745 5742 5740 5737 5735 5732 5730 5728 5726 5723 5721 5719 5717 5715 5713 5711 5709 5708 5705 5703 5701 5698 5694 5691 5686 5681 5674 5669 5666 5663 5660 5658 5655 5652 5649
5774 5769 5764 5760 5757 5753 5749 5746 5743 5740 5737 5734 5731 5728 5726 5724 5721 5719 5716 5714 5712 5710 5708 5706 5705 5703 5700 5698 5695 5691 5688 5684 5679 5674 5669 5663 5659 5655 5653 5650 5646 5643 5640
5773 5767 5762 5759 5755 5751 5747 5743 5740 5737 5734 5731 5727 5725 5723 5720 5718 5715 5712 5709 5707 5704 5702 5701 5699 5698 5695 5693 5690 5685 5682 5677 5673 5668 5663 5658 5653 5649 5646 5642 5638 5634 5630
5770 5765 5760 5756 5752 5748 5744 5741 5737 5733 5730 5727 5724 5721 5718 5716 5713 5711 5708 5704 5701 5699 5697 5695 5693 5691 5689 5686 5683 5680 5677 5673 5668 5663 5658 5653 5648 5644 5640 5636 5632 5628 5624
5767 5762 5758 5753 5749 5745 5742 5737 5733 5729 5726 5722 5719 5717 5714 5711 5709 5706 5703 5700 5696 5693 5691 5689 5687 5684 5682 5679 5676 5673 5669 5666 5663 5659 5654 5649 5644 5640 5635 5631 5626 5622 5617
5764 5759 5755 5751 5746 5742 5738 5733 5729 5725 5721 5718 5715 5712 5709 5707 5704 5701 5698 5694 5690 5687 5684 5682 5679 5677 5675 5672 5669 5665 5661 5657 5655 5652 5649 5644 5640 5635 5631 5627 5621 5614 5609
5760 5757 5753 5749 5743 5738 5734 5729 5725 5721 5717 5713 5710 5707 5704 5701 5699 5695 5692 5688 5684 5680 5678 5675 5673 5670 5668 5665 5662 5658 5654 5650 5647 5644 5641 5637 5633 5629 5625 5620 5614 5610 5605
5758 5754 5750 5745 5741 5735 5731 5726 5721 5717 5713 5709 5705 5702 5699 5696 5693 5690 5687 5683 5678 5674 5671 5668 5666 5664 5661 5659 5656 5652 5647 5642 5640 5637 5633 5630 5625 5621 5617 5613 5609 5604 5599
5754 5750 5745 5741 5736 5732 5727 5722 5717 5712 5707 5703 5699 5696 5693 5690 5687 5684 5681 5677 5673 5669 5665 5661 5658 5656 5654 5651 5649 5645 5641 5636 5632 5629 5625 5621 5617 5613 5608 5604 5600 5597 5593
5749 5744 5739 5735 5731 5727 5722 5717 5712 5707 5702 5697 5693 5689 5686 5683 5680 5677 5674 5671 5667 5663 5659 5655 5652 5649 5647 5644 5641 5637 5633 5629 5625 5621 5617 5612 5608 5604 5600 5596 5592 5589 5585
5742 5737 5732 5729 5725 5721 5717 5711 5706 5701 5696 5690 5686 5683 5680 5677 5674 5671 5667 5664 5660 5657 5653 5649 5646 5643 5639 5636 5632 5629 5625 5621 5617 5613 5609 5604 5599 5595 5592 5588 5585 5581 5578
5735 5730 5726 5721 5717 5713 5709 5705 5700 5695 5690 5686 5681 5677 5673 5670 5667 5664 5661 5657 5653 5650 5646 5642 5639 5635 5632 5628 5624 5620 5616 5613 5609 5605 5601 5596 5592 5588 5585 5582 5578 5574 5571
5728 5723 5719 5714 5710 5705 5702 5698 5695 5692 5688 5683 5679 5674 5669 5665 5663 5659 5655 5651 5648 5644 5639 5636 5632 5628 5624 5620 5616 5612 5608 5604 5600 5596 5593 5589 5585 5582 5578 5574 5570 5567 5564
5721 5716 5712 5707 5703 5699 5695 5690 5687 5684 5681 5677 5674 5670 5666 5662 5657 5652 5648 5645 5641 5637 5633 5629 5625 5621 5617 5613 5609 5605 5601 5597 5593 5589 5585 5582 5579 5575 5571 5567 5563 5560 5557
5715 5711 5706 5701 5697 5693 5689 5685 5680 5675 5673 5669 5666 5663 5659 5655 5651 5647 5642 5638 5633 5630 5626 5622 5618 5614 5610 5606 5602 5598 5595 5590 5586 5582 5579 5575 5572 5568 5564 5561 5557 5553 5550
5708 5704 5699 5695 5691 5687 5683 5679 5676 5672 5667 5663 5659 5655 5651 5648 5643 5640 5635 5631 5626 5622 5619 5616 5612 5608 5604 5600 5596 5592 5588 5584 5580 5576 5572 5568 5565 5561 5558 5555 5551 5547 5544
5700 5696 5693 5689 5685 5681 5677 5673 5670 5666 5662 5657 5652 5647 5643 5640 5636 5632 5628 5626 5623 5618 5614 5610 5606 5602 5598 5594 5590 5586 5582 5578 5574 5570 5566 5562 5558 5555 5552 5549 5545 5540 5537
5693 5690 5687 5683 5679 5674 5671 5667 5663 5658 5654 5650 5647 5643 5637 5633 5630 5626 5622 5620 5617 5613 5609 5605 5600 5596 5592 5588 5584 5580 5575 5571 5568 5564 5560 5556 5553 5549 5546 5543 5539 5536 5532
5686 5683 5680 5677 5673 5668 5664 5660 5656 5652 5648 5645 5641 5637 5632 5630 5627 5623 5619 5615 5612 5608 5604 5600 5595 5591 5586 5582 5578 5574 5570 5566 5562 5559 5555 5551 5547 5544 5540 5536 5533 5530 5527
5679 5675 5672 5669 5665 5661 5658 5654 5650 5646 5643 5639 5635 5630 5625 5623 5620 5617 5614 5611 5607 5603 5599 5595 5591 5586 5582 5578 5573 5570 5566 5562 5558 5553 5550 5546 5542 5538 5534 5531 5527 5523 5520
5671 5668 5664 5660 5657 5653 5650 5647 5644 5641 5637 5634 5629 5625 5621 5617 5615 5611 5608 5605 5601 5597 5593 5589 5585 5581 5577 5572 5568 5565 5561 5557 5553 5549 5545 5541 5537 5533 5529 5525 5522 5518 5515
5664 5660 5656 5652 5649 5646 5643 5640 5637 5634 5631 5627 5623 5619 5616 5613 5609 5606 5603 5599 5595 5592 5588 5584 5580 5577 5572 5567 5563 5559 5556 5552 5548 5544 5540 5535 5531 5527 5523 5519 5516 5512 5509
5656 5652 5649 5645 5642 5638 5635 5632 5630 5627 5624 5621 5617 5614 5610 5607 5603 5600 5597 5593 5589 5586 5582 5578 5574 5571 5567 5562 5558 5554 5551 5547 5543 5538 5534 5529 5525 5521 5517 5513 5509 5505 5502
5648 5645 5641 5638 5634 5631 5629 5626 5623 5620 5617 5615 5611 5608 5604 5601 5598 5594 5590 5587 5583 5579 5576 5572 5568 5564 5560 5556 5552 5548 5544 5541 5536 5532 5527 5523 5519 5515 5510 5506 5502 5498 5495